SCP
0 0 0 0 0 0 0 0 0 0 0 0 0 0 0 0 0 0 0 0 0 0 0 0 0 0 0 0 0 0 0 0 0 0 0 0 0 0 0 0 0 0 0
0 0 0 0 0 0 0 0 0 0 0 0 0 0 0 0 0 0 0 0 0 0 0 0 0 0 0 0 0 0 0 0 0 0 0 0 0 0 0 0 0 0 0
0 0 0 0 0 0 0 0 0 0 0 0 0 0 0 0 0 0 0 0 0 0 0 0 0 0 0 0 0 0 0 0 0 0 0 0 0 0 0 0 0 0 0
0 0 0 0 0 0 0 0 0 0 0 0 0 0 0 0 0 0 0 0 0 0 0 0 0 0 0 0 0 0 0 0 0 0 0 0 0 0 0 0 0 0 0
0 0 0 0 0 0 0 0 0 0 0 0 0 0 0 0 0 0 0 0 0 0 0 0 0 0 0 0 0 0 0 0 0 0 0 0 0 0 0 0 0 0 0
0 0 0 0 0 0 0 0 0 0 0 0 0 0 0 0 0 0 0 0 0 0 0 0 0 0 0 0 0 0 0 0 0 0 0 0 0 0 0 0 0 0 0
0 0 0 0 0 0 0 0 0 0 0 0 0 0 0 0 0 0 0 0 0 0 0 0 0 0 0 0 0 0 0 0 0 0 0 0 0 0 0 0 0 0 0
0 0 0 0 0 0 0 0 0 0 0 0 0 0 0 0 0 0 0 0 0 0 0 0 0 0 0 0 0 0 0 0 0 0 0 0 0 0 0 0 0 0 0
0 0 0 0 0 0 0 0 0 0 0 0 0 0 0 0 0 0 0 0 0 0 0 0 0 0 0 0 0 0 0 0 0 0 0 0 0 0 0 0 0 0 0
0 0 0 0 0 0 0 0 0 0 0 0 0 0 0 0 0 0 0 0 0 0 0 0 0 0 0 0 0 0 0 0 0 0 0 0 0 0 0 0 0 0 0
0 0 0 0 0 0 0 0 0 0 0 0 0 0 0 0 0 0 0 0 0 0 0 0 0 0 0 0 0 0 0 0 0 0 0 0 0 0 0 0 0 0 0
0 0 0 0 0 0 0 0 0 0 0 0 0 0 0 0 0 0 0 0 0 0 0 0 0 0 0 0 0 0 0 0 0 0 0 0 0 0 0 0 0 0 0
0 0 0 0 0 0 0 0 0 0 0 0 0 0 0 0 0 0 0 0 0 0 0 0 0 0 0 0 0 0 0 0 0 0 0 0 0 0 0 0 0 0 0
0 0 0 0 0 0 0 0 0 0 0 0 0 0 0 0 0 0 0 0 0 0 0 0 0 0 0 0 0 0 0 0 0 0 0 0 0 0 0 0 0 0 0
0 0 0 0 0 0 0 0 0 0 0 0 0 0 0 0 0 0 0 0 0 0 0 0 0 0 0 0 0 0 0 0 0 0 0 0 0 0 0 0 0 0 0
0 0 0 0 0 0 0 0 0 0 0 0 0 0 0 0 0 0 0 0 0 0 0 0 0 0 0 0 0 0 0 0 0 0 0 0 0 0 0 0 0 0 0
0 0 0 0 0 0 0 0 0 0 0 0 0 0 0 0 0 0 0 0 0 0 0 0 0 0 0 0 0 0 0 0 0 0 0 0 0 0 0 0 0 0 0
0 0 0 0 0 0 0 0 0 0 0 0 0 0 0 0 0 0 0 0 0 0 0 0 0 0 0 0 0 0 0 0 0 0 0 0 0 0 0 0 0 0 0
0 0 0 0 0 0 0 0 0 0 0 0 0 0 0 0 0 0 0 0 0 0 0 0 0 0 0 0 0 0 0 0 0 0 0 0 0 0 0 0 0 0 0
0 0 0 0 0 0 0 0 0 0 0 0 0 0 0 0 0 0 0 0 0 0 0 0 0 0 0 0 0 0 0 0 0 0 0 0 0 0 0 0 0 0 0
0 0 0 0 0 0 0 0 0 0 0 0 0 0 0 0 0 0 0 0 0 0 0 0 0 0 0 0 0 0 0 0 0 0 0 0 0 0 0 0 0 0 0
0 0 0 0 0 0 0 0 0 0 0 0 0 0 0 0 0 0 0 0 0 0 0 0 0 0 0 0 0 0 0 0 0 0 0 0 0 0 0 0 0 0 0
0 0 0 0 0 0 0 0 0 0 0 0 0 0 0 0 0 0 0 0 0 0 0 0 0 0 0 0 0 0 0 0 0 0 0 0 0 0 0 0 0 0 0
0 0 0 0 0 0 0 0 0 0 0 0 0 0 0 0 0 0 0 0 0 0 0 0 0 0 0 0 0 0 0 0 0 0 0 0 0 0 0 0 0 0 0
0 0 0 0 0 0 0 0 0 0 0 0 0 0 0 0 0 0 0 0 0 0 0 0 0 0 0 0 0 0 0 0 0 0 0 0 0 0 0 0 0 0 0
0 0 0 0 0 0 0 0 0 0 0 0 0 0 0 0 0 0 0 0 0 0 0 0 0 0 0 0 0 0 0 0 0 0 0 0 0 0 0 0 0 0 0
Wind_Speed
2 2 2 1 2 2 2 3 4 3 3 3 2 3 2 1 0 1 3 5 5 3 4 4 4 5 6 7 7 6 6 7 7 7 6 6 7 8 8 9 9 9 10
2 2 3 2 2 2 2 2 4 3 3 2 2 3 2 1 0 0 2 4 5 4 4 4 5 6 7 7 7 7 7 7 7 7 7 7 6 7 8 8 9 9 9
2 2 3 3 3 3 4 3 4 3 3 3 2 3 2 1 0 1 1 2 3 4 4 5 5 6 7 7 8 8 8 7 7 7 8 7 7 7 7 8 8 9 9
4 3 2 3 3 3 3 3 2 3 3 3 2 2 2 0 1 2 2 2 2 3 4 5 5 6 7 7 7 8 8 8 8 8 8 8 7 7 7 7 8 8 8
5 3 2 2 4 3 3 4 3 3 3 4 3 2 1 1 0 2 1 2 3 3 3 5 6 6 6 7 7 8 8 9 8 8 8 8 8 8 8 7 7 8 8
4 3 2 3 3 2 3 3 4 3 3 3 4 3 2 1 1 0 1 1 1 2 3 4 4 4 6 7 7 8 9 9 9 9 9 9 9 8 8 8 8 8 8
2 2 2 2 2 2 3 4 3 4 3 3 2 3 3 1 0 1 0 1 1 1 2 3 3 3 3 6 6 7 8 9 10 10 10 10 10 9 9 8 9 9 8
2 3 3 3 2 1 2 3 2 2 3 3 1 2 2 2 3 0 0 0 0 1 1 2 2 3 3 3 4 6 6 7 9 10 10 10 10 10 10 9 9 9 9
1 2 3 3 2 2 1 2 2 2 2 3 2 1 1 1 2 2 1 0 1 1 1 0 1 2 3 3 3 4 5 6 7 10 10 10 11 11 10 10 10 9 9
0 0 2 3 2 2 2 2 2 2 2 2 3 1 1 0 0 1 2 1 1 1 1 0 2 2 3 3 3 5 5 5 5 7 9 10 11 11 11 10 10 10 9
1 1 2 2 2 1 2 2 2 2 1 1 2 2 2 1 1 1 1 1 1 0 1 1 1 1 2 3 3 4 5 5 4 4 6 8 10 10 11 11 11 11 11
1 1 1 1 1 1 2 2 2 1 1 2 2 2 1 1 1 1 1 1 0 1 1 1 0 1 1 2 3 5 5 5 4 4 4 6 7 8 9 11 11 11 11
0 0 1 1 1 1 1 2 2 2 1 1 1 1 2 1 1 1 0 1 1 1 0 1 1 1 1 2 3 5 5 6 5 4 4 4 5 6 7 8 9 10 10
1 1 1 1 1 1 1 1 2 2 2 1 1 1 1 1 1 1 0 0 1 1 1 1 1 1 1 2 3 4 4 6 6 5 4 4 5 5 6 6 6 7 8
2 2 2 2 2 2 2 1 1 2 2 1 2 1 1 1 1 1 1 0 1 1 1 1 0 1 1 2 3 3 3 5 6 6 5 5 5 4 5 5 5 5 5
2 3 4 3 3 2 2 2 2 2 2 2 1 1 1 1 1 1 1 1 0 1 1 1 1 1 1 2 3 2 3 6 6 6 5 5 5 5 5 5 5 4 4
3 4 4 4 3 2 2 2 2 2 3 3 2 2 2 1 1 1 1 1 1 1 1 1 0 1 1 1 1 1 3 3 3 6 6 6 6 5 5 5 5 4 4
3 4 4 4 3 3 3 2 3 3 3 3 3 2 2 2 2 2 1 2 1 1 2 2 1 0 1 2 2 1 2 3 3 6 7 7 6 5 5 5 5 5 4
5 4 4 3 3 3 3 3 3 3 3 3 3 3 3 2 2 2 3 2 2 2 2 2 1 1 1 1 1 0 1 1 3 5 7 6 6 6 6 6 5 5 4
6 5 5 4 4 4 3 3 3 3 3 3 3 3 3 2 2 2 2 3 2 2 2 2 1 1 1 1 2 1 1 1 1 2 3 5 6 7 6 6 6 5 5
7 6 5 5 5 4 3 3 4 5 4 4 4 3 3 4 3 3 2 1 1 1 2 2 2 1 1 1 2 2 2 1 1 2 2 2 3 3 4 5 5 6 6
6 5 6 5 5 4 5 5 4 5 5 5 5 4 5 5 6 6 5 4 3 3 3 2 2 3 3 3 2 2 2 2 1 1 2 2 3 3 3 3 6 7 6
5 5 6 6 5 5 6 6 7 5 6 6 6 5 5 4 6 5 6 7 6 6 5 4 3 3 3 3 3 3 2 2 2 2 2 1 1 2 2 4 7 8 7
5 4 5 6 6 6 7 7 7 6 6 6 6 6 5 4 4 4 4 4 5 5 6 5 4 3 3 3 3 3 3 2 1 1 2 2 1 1 2 2 6 7 7
5 5 5 6 6 6 7 7 6 4 5 6 6 6 5 4 5 5 4 4 4 4 6 7 7 6 4 3 3 2 2 2 2 1 1 2 1 1 1 2 4 7 7
5 6 6 6 6 6 7 7 5 3 5 5 4 4 6 6 6 5 4 4 5 4 4 5 5 5 5 4 4 3 3 3 2 2 2 2 2 2 1 1 2 3 3
Wind_Direction
352 360 339 17 344 350 354 340 316 338 330 311 304 309 325 315 344 145 134 151 162 171 185 191 185 179 174 167 157 153 147 144 138 135 130 123 119 121 119 117 116 114 112
5 0 354 10 354 338 342 329 318 327 308 306 301 305 303 307 314 122 154 165 176 177 190 194 187 176 172 170 165 161 154 151 147 146 142 137 133 131 131 128 126 125 122
21 28 2 356 350 340 342 337 335 330 317 313 307 299 273 252 267 280 203 166 176 182 191 195 186 177 174 171 171 168 161 157 155 153 151 148 143 139 137 136 131 130 128
15 36 7 351 344 348 345 329 334 332 332 331 324 309 315 259 227 243 213 188 179 175 183 192 186 185 177 175 174 172 167 163 163 163 161 158 154 148 143 143 141 138 134
11 17 359 351 350 360 349 338 358 348 330 325 304 277 288 272 259 296 274 197 180 163 161 180 183 181 178 178 178 176 173 170 171 172 170 166 161 155 153 153 154 149 144
8 4 344 2 357 353 346 337 338 334 319 309 315 325 301 266 195 323 316 288 156 148 154 165 170 183 184 181 180 178 180 177 176 177 177 173 167 163 162 162 160 158 155
4 348 348 335 347 351 346 337 343 336 325 327 340 331 314 314 289 180 314 344 30 86 138 155 169 164 178 180 179 180 184 184 182 181 183 179 172 171 171 170 170 169 168
15 351 345 328 333 352 341 327 348 341 324 340 348 350 339 345 341 7 115 244 73 65 69 123 149 163 165 155 168 174 186 189 188 187 187 181 175 177 177 178 179 178 176
68 336 329 327 341 353 325 333 356 344 333 331 337 57 26 333 321 326 355 69 96 84 86 197 138 126 137 135 144 171 179 186 193 193 191 188 183 183 184 185 186 185 183
152 332 316 318 335 342 343 333 356 342 347 323 326 336 272 165 145 323 327 358 118 120 105 34 72 74 105 121 129 146 161 170 186 194 195 192 189 189 190 191 192 190 187
209 131 287 308 328 335 334 330 342 346 341 324 319 328 335 341 269 202 283 312 8 116 131 75 75 90 107 124 124 133 149 163 176 190 191 190 192 197 197 198 197 194 193
202 172 289 299 320 326 326 319 311 317 307 316 325 328 325 322 317 333 276 269 218 241 164 120 125 131 123 123 128 142 153 162 171 178 186 188 191 198 200 200 200 200 200
279 248 292 271 296 301 296 306 302 302 281 277 280 294 309 307 313 302 284 286 275 245 195 191 195 167 136 130 133 152 161 165 168 169 173 182 185 194 199 201 203 204 202
290 270 262 249 228 258 293 300 302 307 306 290 275 258 273 291 305 303 205 215 329 311 249 221 179 154 131 135 158 167 167 169 170 171 175 177 180 190 197 200 200 206 205
301 312 286 270 242 220 231 255 268 285 299 305 297 298 275 261 264 288 310 167 160 235 263 234 179 172 128 132 156 169 160 172 175 174 175 175 173 179 190 189 185 189 193
316 302 290 276 257 237 212 212 254 272 286 273 242 265 287 290 292 261 269 278 192 185 238 248 211 167 151 152 159 177 160 165 176 175 176 174 171 172 174 176 178 180 187
287 286 281 284 279 268 241 213 231 246 267 275 269 240 238 239 274 275 262 249 241 185 219 269 248 156 148 136 146 191 162 167 176 182 180 175 170 167 165 167 170 176 188
290 287 289 292 293 285 270 237 239 245 246 252 261 268 263 239 230 233 243 251 229 212 188 217 251 164 158 168 168 198 183 168 163 172 172 170 167 163 164 166 167 167 173
313 303 298 300 301 298 290 274 252 244 245 245 240 242 254 253 248 230 221 233 226 214 183 186 217 196 210 181 150 202 161 148 168 160 163 166 166 165 166 167 164 162 161
320 313 312 309 303 303 302 296 298 279 261 256 243 229 234 234 244 253 237 235 223 208 192 191 204 207 198 193 153 169 175 206 184 158 154 162 168 171 171 169 166 166 165
315 310 316 317 313 307 305 317 314 303 290 275 257 233 214 206 211 224 229 236 235 207 196 193 206 203 198 172 181 185 178 188 187 157 150 172 165 168 177 177 174 172 171
307 314 313 309 306 307 315 308 303 304 296 284 272 250 224 214 217 218 213 203 195 205 205 205 204 201 201 189 182 176 175 165 205 206 167 205 171 168 167 160 170 169 169
294 301 302 298 291 285 286 290 281 283 285 283 279 270 259 228 213 215 218 218 222 222 212 202 200 205 196 188 176 181 190 184 199 200 142 209 172 155 151 150 160 165 168
293 287 287 288 286 281 277 275 278 276 277 275 275 273 261 241 230 220 218 217 215 222 218 207 199 201 187 181 179 187 191 178 173 208 145 176 192 152 135 142 161 161 168
289 286 283 282 284 281 271 268 266 277 276 271 269 274 272 254 240 233 228 224 216 215 207 187 181 179 166 164 156 142 160 158 195 225 173 157 173 139 154 174 177 171 170
278 283 283 280 282 281 270 267 267 271 282 282 274 264 262 258 253 234 233 228 224 218 198 192 190 191 190 186 175 167 170 172 177 200 201 154 161 130 145 186 162 171 178